Regional Weather Roundup
Issued by NWS Pendleton, OR

Home | Current Version | Previous Version | Text Only | Print | Product List | Glossary On
Versions: 1 2 3 4 5 6 7 8 9 10 11 12 13 14 15 16 17 18 19 20 21 22 23 24 25 26 27 28 29 30 31 32 33 34 35 36 37 38 39 40 41 42 43 44 45 46 47 48 49 50
354
ASUS46 KPDT 262210
RWRPDT
PENDLETON REGIONAL WEATHER ROUNDUP
NATIONAL WEATHER SERVICE PENDLETON OREGON
200 PM PST SUN FEB 26 2017

NOTE: FAIR INDICATES FEW OR NO CLOUDS BELOW 12,000 FEET WITH NO
SIGNIFICANT WEATHER AND/OR OBSTRUCTIONS TO VISIBILITY.

# INDICATES UNOFFICIAL STATION AND DATA

WAZ520-262310-
EAST SLOPES OF WASHINGTON CASCADES

CITY            SKY/WX      TMP DP  RH  WIND    PRES   REMARKS
#CLE ELUM HS    N/A         32  27  82  SW3     29.62F
#CLE ELUM LAKE  N/A         31  27  85  CALM    29.67F
#GLENWOOD       N/A         37  34  89  CALM    29.67F
#MANASTASH CYN  N/A         29  24  81  S1      29.62S
#NELSON 3SW     N/A         28  26  92  CALM    29.91F
#NILE           N/A         33  26  75  E3      28.94F
#TEANAWAY 4NE   N/A         33  29  85  CALM    N/A
#TROUT LAKE 1NE N/A         35  32  89  CALM    29.67F
#TROUT LAKE 1E  N/A         35  32  89  CALM    29.64F
$$

WAZ521-262310-
SIMCOE HIGHLANDS

CITY            SKY/WX      TMP DP  RH  WIND    PRES   REMARKS
#CENTERVILLE 1SWN/A         34  29  82  NE3     29.64F
#GOLDENDALE 1NE N/A         37  21  52  E5      N/A
#GOLDENDALE 4W  N/A         40   9  27  E3      29.66S
#GOODNOE HILLS  N/A         41  30  65  E9      29.54F
#LYLE 6NE       N/A         38  34  85  CALM    29.64F
#PITT 4SE       N/A         33  30  89  NE1     29.71S
$$

WAZ026-262310-
KITTITAS VALLEY

CITY            SKY/WX      TMP DP  RH  WIND    PRES   REMARKS
ELLENSBURG AP   LGT SNOW    36  30  79  CALM    29.65F
#ELLENSBURG CWU N/A         34  32  92  CALM    29.66F
#ELLENSBURG 3NE N/A         33  31  92  CALM    27.75F
#ELLENSBURG 1E  N/A         36  N/A N/A CALM    N/A
#KITTITAS 4N    N/A         37  30  75  SE5     29.68F
#KITTITAS 3S    N/A         32  30  92  CALM    29.71F
#THORP 6N       N/A         29  27  92  E7      29.73F
$$

WAZ027-262310-
YAKIMA VALLEY

CITY            SKY/WX      TMP DP  RH  WIND    PRES   REMARKS
SUNNYSIDE AP    LGT DRIZZLE 35  33  92  NE7     29.69F
YAKIMA AIRPORT  CLOUDY      37  34  89  CALM    29.68F
YAKIMA-VAGABOND LGT SNOW    33  32  96  N5      29.64F
#DONALD 2NE     N/A         40  26  57  NE3     28.53F
#GRANDVIEW      N/A         36  32  85  CALM    29.72F
#MABTON         N/A         38  35  89  NE1     29.68F
#MOXEE 2E       N/A         35   0  22  E3      29.67F
#NACHES 2SW     N/A         33  30  89  E3      29.69S
#TERRACE HTS    N/A         35  33  92  CALM    29.68F
#TOPPENISH      N/A         36  34  92  E6      29.62F
#WEST VALLEY    N/A         35  32  89  CALM    29.70F
#W YAKIMA       N/A         34  32  92  CALM    29.72F
#WHITE SWAN 5E  N/A         35  32  89  CALM    29.72F
#WILEY CITY 3W  N/A         36  29  75  CALM    29.63F
$$

WAZ028-262310-
LOWER COLUMBIA BASIN...WASHINGTON

CITY            SKY/WX      TMP DP  RH  WIND    PRES   REMARKS
HANFORD         LGT RAIN    38  35  89  E2      29.67F
PASCO           LGT RAIN    40  34  79  CALM    29.72F
PROSSER AWOS    N/A         37  37  100 NE7     29.72F
RICHLAND AWOS   MXD PCPN    40  35  82  CALM    29.72F
#BENTON CITY    N/A         37  34  89  CALM    29.63F
#CONNELL 5N     N/A         36  34  92  SW2     29.73F
#CONNELL 5NW    N/A         36  35  96  CALM    29.69F
#ELTOPIA 6NW    N/A         36  35  96  CALM    28.67F
#KAHLOTUS       N/A         37  34  89  CALM    29.72F
#KENNEWICK 3S   N/A         40  34  79  SW2     29.72F
#PATERSON       N/A         39  34  82  E6      29.68F
#SAGEMOOR 2W    N/A         38  34  85  W3      29.57F
#TOUCHET 2S     N/A         41  35  79  SW1     29.71F
#WEST PASCO     N/A         41  34  76  SE1     29.67F
$$

WAZ029-262310-
FOOTHILLS OF THE BLUES...WASHINGTON

CITY            SKY/WX      TMP DP  RH  WIND    PRES   REMARKS
WALLA WALLA AP  LGT RAIN    37  34  89  CALM    29.69F
#CLYDE 6NW      N/A         35  33  92  CALM    29.72F
#DAYTON SCHOOL  N/A         35  27  72  SW2     29.72F
#LOWDEN 2SE     N/A         43  35  73  SW5     29.67F
#PLEASANT VIEW 1N/A         35  32  89  CALM    29.77F
#PRESCOTT       N/A         40  37  89  SW1     29.71F
#WHITMAN COLLEGEN/A         37  34  89  CALM    29.77F
#WAITSBURG 5S   N/A         35  34  96  W2      29.81F
#WALLA WALLA 5E N/A         38  34  85  NE2     N/A
#WALLA WALLA U  N/A         41  34  76  SW3     29.72F
#WHITMAN MISSIONN/A         41  34  76  SW2     29.74F
$$

WAZ030-262310-
BLUE MOUNTAINS...WASHINGTON

CITY            SKY/WX      TMP DP  RH  WIND    PRES   REMARKS
#DIXIE 5SE      N/A         30  28  92  W3      29.54F
$$

ORZ009-041-WAZ024-262310-
COLUMBIA RIVER GORGE

CITY            SKY/WX      TMP DP  RH  WIND    PRES   REMARKS
HOOD RIVER AP   RAIN        37  34  89  CALM    29.68F
THE DALLES AP   MOCLDY      46  33  60  N9      29.66F
#ARLINGTON AIRPON/A         40  34  79  NE12    29.69F WCI 33
#ARLINGTON HS   N/A         43  33  67  E13     29.61F WCI 36
#CELILO DOT     N/A         46  29  51  NE3     N/A
#LYLE           N/A         42  36  79  NW5     29.69F
#MOSIER 1S      N/A         39  27  62  CALM    29.65S
#MURDOCK        N/A         43  35  73  NW9     29.64F
#RUFUS DOT      N/A         44  32  62  E6      N/A
#SMITHVILLE     N/A         44  37  76  N12     29.62F WCI 38

$$

ORZ510-262310-
NORTH CENTRAL OREGON

CITY            SKY/WX      TMP DP  RH  WIND    PRES   REMARKS
#CHENOWITH 1W   N/A         35  31  85  SW5     N/A
#COW CYN RST AREN/A         35  26  69  S8      N/A
#DUFUR 9E       N/A         32  30  92  NE5     29.71S
#GRASS VALLEY 1SN/A         38  29  70  W10     29.76R
#KENT DOT       N/A         35  22  59  N22     N/A    WCI 23
#MAUPIN SCHOOL  N/A         43  29  57  NW6     29.66F
#MORO SCHOOL    N/A         39  34  82  N2      29.68F
#SHANIKO 5WSW   N/A         31  22  69  N15     N/A    WCI 20
#SHANIKO 4NW    N/A         30  26  85  S10     29.55S
#TYGH VALLEY 2NEN/A         42  33  70  CALM    29.63F
#WAPANITIA AIRPON/A         40  30  67  NW3     29.65F
#WASCO DOT      N/A         40  30  67  NE8     N/A
#WASCO 5NE      N/A         37  31  79  N2      29.67S
$$

ORZ511-262310-
CENTRAL OREGON

CITY            SKY/WX      TMP DP  RH  WIND    PRES   REMARKS
BEND AIRPORT    MOCLDY      36  23  59  SW15    29.58F WCI 27
MADRAS AIRPORT  LGT SNOW    37  25  61  N3      29.61F
PRINEVILLE AP   MOCLDY      36  25  64  W12G29  29.58F HAZE WCI 28
REDMOND AIRPORT MOCLDY      39  19  44  W14     29.58S WCI 31
#ASHWOOD SCHOOL N/A         39  29  67  CALM    29.59F
#BEND 1SW       N/A         33  26  75  SW3     N/A
#BEND-AWBREY    N/A         37  24  59  SW3     29.66F
#BEND-KIM LN    N/A         36  22  56  NW8     29.62S
#CULVER         N/A         36  23  59  SW7     29.59S
#CULVER 8W      N/A         40  18  41  W5      29.65F
#LAKE BILLY CHINN/A         37  N/A N/A W7      29.72F
#POWELL BUTTE 3EN/A         38  20  48  SW15G24 N/A    WCI 29
#POWELL BUTTE   N/A         35  21  56  W12     29.58S WCI 27
#PRINEVILLE 3N  N/A         34  28  78  W5      29.65F
#WARM SPRINGS   N/A         42  29  60  CALM    29.57F

$$


ORZ509-262310-
EAST SLOPES OF OREGON CASCADES

CITY            SKY/WX      TMP DP  RH  WIND    PRES   REMARKS
SISTERS AWOS    N/A         36  21  54  W15G24  29.60S WCI 27
#BLUE BOX PASS  N/A         28  N/A N/A CALM    N/A
#CAMP SHERMAN   N/A         35  23  61  N1      29.74S
#LA PINE 4NW    N/A         27  23  85  W2      29.75S
#LAVA BUTTE DOT N/A         28  22  78  SE2     N/A
#SISTERS ODOT   N/A         36  N/A N/A SE3     N/A
#SISTERS 1NW    N/A         36  24  61  N1      N/A
#SISTERS 3N     N/A         34  18  51  NW6     29.61S
#SUNRIVER       N/A         30  24  78  SW3     29.70F
#TUMALO 3W      N/A         34  20  56  N9      29.55S
#WANOGA BUTTE D N/A         21  15  77  W9      N/A

$$

ORZ044-262310-
LOWER COLUMBIA BASIN...OREGON

CITY            SKY/WX      TMP DP  RH  WIND    PRES   REMARKS
HERMISTON       CLOUDY      42  36  79  E8      29.68F
#BOARDMAN SCHOOLN/A         41  36  82  N8      29.69F
#BOARDMAN 8SW   N/A         42  36  79  N8      29.67F
#ECHO 8SW       N/A         42  34  73  N1      29.69F
#I-84 EX 198 DOTN/A         38  33  82  N8      N/A
#IONE SCHOOL    N/A         44  27  51  CALM    29.67F
#UMATILLA       N/A         41  34  76  NE2     29.64F
$$

ORZ507-262310-
NORTHERN FOOTHILLS OF THE BLUES

CITY            SKY/WX      TMP DP  RH  WIND    PRES   REMARKS
PENDLETON AIRPT CLOUDY      37  33  85  SE5     29.65F
#ADAMS 3WNW     N/A         35  32  89  CALM    29.71F
#ATHENA         N/A         35  32  89  CALM    29.75F
#CAYUSE         N/A         35  32  89  CALM    29.71F
#HELIX SCHOOL   N/A         35  33  92  N5      29.72F
#HELIX 3N       N/A         33  32  96  S7      29.65F
#HOLDMAN 5SE    N/A         37  34  89  SE2     29.67F
#HOLDMAN 6E     N/A         35  34  96  SE5     29.52F
#M-F FERNDALE   N/A         42  32  67  CALM    29.68F
#M-F GROVE ELEM N/A         39  30  70  S2      29.67F
#M-FREEWATER 5SEN/A         39  33  79  W5      29.68F
#PENDLETON DNTN N/A         39  34  82  CALM    29.69F
#PDT AQUATIC CTRN/A         38  33  82  CALM    29.69F
#PDT SUNRIDGE   N/A         38  32  79  CALM    29.68F
#PENDLETON 7NW  N/A         37  31  79  CALM    31.81S
#PILOT ROCK 1S  N/A         40  23  50  S13     29.67F WCI 32
#PILOT ROCK     N/A         40  29  64  W9      29.67F
#TUTUILLA       N/A         37  33  85  E5      29.71F
#UMAPINE 2E     N/A         42  35  76  S2      29.67F
#WESTON SCHOOL  N/A         33  28  82  NW5     29.59S

$$

ORZ508-262310-
SOUTHERN FOOTHILLS OF THE BLUES

CITY            SKY/WX      TMP DP  RH  WIND    PRES   REMARKS
LEXINGTON       MOCLDY      43  27  53  SE15    29.64F WCI 36
#AJAX           N/A         36  22  56  N2      29.77F
#CONDON SCHOOL  N/A         36  28  72  S14     29.57S WCI 27
#CONDON 5W      N/A         34  23  64  S15G29  29.53F WCI 24
#HEPPNER EOC    N/A         38  26  62  E13     29.60F WCI 30
#HEPPNER 4NE    N/A         34  26  72  CALM    29.68F
#LEXINGTON 2SE  N/A         44  28  53  S10     29.60S
#MIKKALO        N/A         41  26  55  NE2     29.73F
#OLEX 4N        N/A         40  35  82  N1      29.64F
#RUGGS 5NE      N/A         36  22  56  N5      29.75S
#RUGGS 2SW      N/A         37  26  64  S10     29.70F

$$

ORZ502-503-262310-
BLUE MOUNTAINS

CITY            SKY/WX      TMP DP  RH  WIND    PRES   REMARKS
MEACHAM         LGT SNOW    30  24  78  CALM    29.58F
#BATTLE MTN DOT N/A         26  24  92  SE6     N/A
#GREENHORN 9SW  N/A         29  26  88  CALM    29.67F
#HEPPNER 15SE   N/A         30  24  78  CALM    29.88F
#LADD CYN SMT   N/A         30  25  81  SE3     N/A
#LADD CREEK ODOTN/A         33  25  72  S12     N/A    WCI 24
#LONG CREEK HS  N/A         29  27  92  CALM    N/A
#N POWDER DOT   N/A         33  25  72  S16     N/A    WCI 23
#PIKES PEAK     N/A         27  25  92  NW12    27.99S WCI 16
#TOLLGATE       N/A         24  23  96  SW1     29.46F
#TROY SCHOOL    N/A         37  33  85  CALM    29.56F
#UKIAH          N/A         30  26  85  S2      29.63F
#WESTON 4E      N/A         29  28  96  S3      29.70F
$$

ORZ505-262310-
JOHN DAY BASIN

CITY            SKY/WX      TMP DP  RH  WIND    PRES   REMARKS
JOHN DAY        CLOUDY      32  26  78  S14     29.62F WCI 22
#JOHN DAY KJDY  N/A         35  N/A N/A S3      30.16R
#ANTELOPE 9ESE  N/A         44  28  53  S5      N/A
#DAYVILLE SCHOOLN/A         37  24  59  SE7     29.62F
#MITCHELL       N/A         38  26  62  SE5     29.78F
#MITCHELL 8NW   N/A         34  25  69  SW2     29.50F
#MONUMENT HS    N/A         37  30  75  E5      29.62F
#MT. VERNON 5SE N/A         29  24  81  SE2     29.54F
#SPRAY SCHOOL   N/A         40  N/A N/A CALM    N/A
#WINLOCK        N/A         37  26  64  SW12    29.58F WCI 29
$$

ORZ506-262310-
OCHOCO AND JOHN DAY HIGHLANDS

CITY            SKY/WX      TMP DP  RH  WIND    PRES   REMARKS
#HORSE RIDGE DO N/A         33  21  61  S8      N/A
#PAULINA SCHOOL N/A         35  19  52  SW8     N/A
#PINE MTN OBS   N/A         22  20  92  SE13    N/A    WCI 10
#PRAIRIE CITY   N/A         31  23  72  CALM    29.81F
#SENECA         N/A         28  N/A N/A N6      N/A
#SENECA 9NW     N/A         26  22  85  CALM    29.77F
$$

ORZ049-262310-
GRANDE RONDE VALLEY

CITY            SKY/WX      TMP DP  RH  WIND    PRES   REMARKS
LA GRANDE       MOCLDY      37  25  61  SE17    29.62F WCI 27
#COVE           N/A         34  25  69  SE2     29.69F
#COVE SCHOOL    N/A         35  24  64  S3      29.68F
#COVE 6NW       N/A         35  26  69  S6      29.72F
#ELGIN 3N       N/A         31  24  75  S10     29.62F
#ELGIN 1E       N/A         33  27  78  S1      N/A
#IMBLER SCHOOL  N/A         32  26  78  S7      29.62F
#ISLAND CITY 4N N/A         40  38  92  CALM    29.70F
#UNION 1S       N/A         36  26  67  S7      29.73F
$$

ORZ050-262310-
WALLOWA COUNTY

CITY            SKY/WX      TMP DP  RH  WIND    PRES   REMARKS
JOSEPH AIRPORT  CLOUDY      30  21  69  NW3     29.58F
#IMNAHA SCHOOL  N/A         41  22  46  SE12    29.66F WCI 34
#JOSEPH 3N      N/A         31  19  61  NW2     29.65F
#JOSEPH 3W      N/A         30  18  60  CALM    29.45F
#LOSTINE        N/A         32  27  82  CALM    29.51F
#LOSTINE 3SE    N/A         32  25  75  N1      29.64F
#MT HOWARD 8000 N/A         12   9  87  SW6     29.35F
#PROMISE 1S     N/A         28  25  88  CALM    29.82S
#WALLOWA SCHOOL N/A         31  27  85  CALM    29.62F



$$



USA.gov is the U.S. government's official web portal to all federal, state and local government web resources and services.